Location: Allen Lane School
(37.8198°N, 89.7382°W)
Time: 08:25:04
(UTC+00:00)

Meteor 1-14 Rocket - Visible Passes

Search period start: 27 June 2022 00:00
Search period end: 07 July 2022 00:00
Orbit: 833 x 919 km, 81.3° (Epoch: 26 June)

Date Brightness Start Highest point End Pass type
(mag) Time Alt. Az. Time Alt. Az. Time Alt. Az.
27 Jun 5.6 09:54:50 10° SSE 10:00:21 42° E 10:05:47 10° NNE visible
28 Jun 5.4 09:50:23 10° SSE 09:55:58 46° E 10:01:27 10° NNE visible
29 Jun 5.3 09:45:56 10° SSE 09:51:35 49° E 09:57:07 10° NNE visible
30 Jun 5.1 09:41:31 10° SSE 09:47:12 52° E 09:52:47 10° NNE visible
01 Jul 5.0 09:37:06 10° S 09:42:49 56° E 09:48:26 10° NNE visible
02 Jul 4.8 09:32:41 10° S 09:38:26 60° E 09:44:05 10° NNE visible
03 Jul 4.7 09:28:17 10° S 09:34:03 65° E 09:39:44 10° NNE visible
04 Jul 4.6 09:23:53 10° S 09:29:41 69° E 09:35:22 10° NNE visible
05 Jul 4.5 09:19:29 10° S 09:25:18 74° E 09:31:01 10° NNE visible
06 Jul 4.4 09:15:16 11° S 09:20:55 80° E 09:26:38 10° NNE visible
